Plattsburgh, NY

6:23 AM EST on December 12, 2019 (GMT -0500)
Plattsburgh International

Weather History for KPBG - October, 2019

Change the Weather History Date:

Saturday, October 5, 2019

  Actual Average Record
Temperature  
Mean Temperature 42 °F 51 °F  
Max Temperature 54 °F 61 °F 77 °F (1951)
Min Temperature 31 °F 41 °F 29 °F (1950)
Degree Days  
Heating Degree Days 22 14  
Month to date heating degree days 71 65  
Since 1 July heating degree days 263 300  
Cooling Degree Days 0 0  
Month to date cooling degree days 0 0  
Year to date cooling degree days 406 345  
Moisture  
Dew Point 34 °F    
Average Humidity 75    
Maximum Humidity 96    
Minimum Humidity 43    
Precipitation  
Precipitation 0.00 in - 1.04 in (1983)
Month to date precipitation 0.76 0.00  
Year to date precipitation 22.38  
Sea Level Pressure  
Sea Level Pressure 30.42 in    
Wind  
Wind Speed 3 mph ()    
Max Wind Speed 9 mph    
Max Gust Speed 14 mph    
Visibility 10.0 miles    
Events      
T = Trace of Precipitation, MM = Missing Value Source: Averaged Metar Reports

Daily Weather History Graph

Daily Weather History Graph

Search for Another Location

Airport or City:

Astronomy

Oct. 05, 2019 Rise Set
Actual Time 6:56 AM EDT 6:27 PM EDT
Civil Twilight 6:27 AM EDT 6:56 PM EDT
Nautical Twilight 5:53 AM EDT 7:30 PM EDT
Astronomical Twilight 5:19 AM EDT 8:04 PM EDT
Moon 2:33 PM EDT (10/5) 11:34 PM EDT (10/5)
Length of Visible Light 12h 29m
Length of Day
11h 31m
Waxing Crescent, 50% of the Moon is Illuminated
Oct 5
Waxing Crescent
Oct 5
First Quarter
Oct 13
Full
Oct 21
Last Quarter
Oct 27
New

Hourly Weather History & Observations

Time (EDT) Temp. Windchill Dew Point Humidity Pressure Visibility Wind Dir Wind Speed Gust Speed Precip Events Conditions
12:53 AM 39.0 °F 36.8 °F 33.1 °F 79% 30.41 in 10.0 mi West 3.5 mph - N/A   Clear
1:53 AM 37.0 °F 34.5 °F 32.0 °F 82% 30.42 in 10.0 mi West 3.5 mph - N/A   Clear
2:53 AM 37.9 °F 33.5 °F 32.0 °F 79% 30.43 in 10.0 mi West 5.8 mph - N/A   Clear
3:53 AM 37.0 °F - 32.0 °F 82% 30.44 in 10.0 mi Calm Calm - N/A   Clear
4:53 AM 37.0 °F 33.3 °F 32.0 °F 82% 30.45 in 10.0 mi Variable 4.6 mph - N/A   Clear
5:53 AM 34.0 °F - 30.9 °F 89% 30.47 in 10.0 mi Calm Calm - N/A   Clear
6:53 AM 33.1 °F - 30.9 °F 92% 30.48 in 10.0 mi Calm Calm - N/A   Clear
7:53 AM 34.0 °F 31.0 °F 32.0 °F 92% 30.50 in 10.0 mi ESE 3.5 mph - N/A   Scattered Clouds
8:53 AM 42.1 °F 40.2 °F 34.0 °F 73% 30.50 in 10.0 mi Variable 3.5 mph - N/A   Clear
9:53 AM 46.9 °F - 34.0 °F 61% 30.50 in 10.0 mi Calm Calm - N/A   Clear
10:53 AM 48.9 °F - 36.0 °F 61% 30.49 in 10.0 mi East 4.6 mph - N/A   Clear
11:53 AM 51.1 °F - 36.0 °F 56% 30.48 in 10.0 mi Variable 3.5 mph - N/A   Clear
12:53 PM 52.0 °F - 35.1 °F 53% 30.47 in 10.0 mi ESE 6.9 mph - N/A   Clear
1:53 PM 53.1 °F - 36.0 °F 52% 30.44 in 10.0 mi East 5.8 mph - N/A   Clear
2:53 PM 54.0 °F - 37.0 °F 53% 30.41 in 10.0 mi Variable 4.6 mph - N/A   Clear
3:53 PM 53.1 °F - 37.0 °F 55% 30.40 in 10.0 mi SE 4.6 mph - N/A   Clear
4:53 PM 53.1 °F - 30.9 °F 43% 30.38 in 10.0 mi ESE 4.6 mph - N/A   Clear
5:53 PM 48.0 °F - 37.9 °F 68% 30.37 in 10.0 mi SSW 3.5 mph - N/A   Clear
6:53 PM 45.0 °F - 37.9 °F 76% 30.35 in 10.0 mi Calm Calm - N/A   Clear
7:53 PM 39.9 °F - 37.9 °F 93% 30.33 in 10.0 mi Calm Calm - N/A   Clear
8:53 PM 37.9 °F - 36.0 °F 93% 30.34 in 10.0 mi Calm Calm - N/A   Clear
9:53 PM 37.0 °F - 34.0 °F 89% 30.32 in 10.0 mi Calm Calm - N/A   Clear
10:53 PM 35.1 °F - 33.1 °F 92% 30.31 in 10.0 mi Calm Calm - N/A   Clear
11:53 PM 34.0 °F - 33.1 °F 96% 30.29 in 10.0 mi Calm Calm - N/A   Clear